| time (UTC) | temp F | wind direction | speed MPH | gust MPH | rain 1hr in | rain 24hr in | rain mn in | humidity % | barometer mb |
| 20260503023510 | 57 | 111 | 6.0 | 7.0 | 0.00 | 0.00 | 0.00 | 87 | 1018.1 |
| 20260503023009 | 57 | 95 | 6.0 | 7.0 | 0.00 | 0.00 | 0.00 | 86 | 1018.1 |
| 20260503022509 | 57 | 98 | 5.0 | 7.0 | 0.00 | 0.00 | 0.00 | 86 | 1018.2 |
| 20260503022011 | 57 | 116 | 5.0 | 8.0 | 0.00 | 0.00 | 0.00 | 86 | 1018.2 |
| 20260503021513 | 57 | 117 | 5.0 | 8.0 | 0.00 | 0.00 | 0.00 | 85 | 1018.0 |
| 20260503021008 | 57 | 121 | 5.0 | 8.0 | 0.00 | 0.00 | 0.00 | 85 | 1018.0 |
| 20260503020508 | 57 | 116 | 5.0 | 8.0 | 0.00 | 0.00 | 0.00 | 85 | 1018.0 |
| 20260503020007 | 57 | 115 | 6.0 | 9.0 | 0.00 | 0.00 | 0.00 | 85 | 1018.0 |
| 20260503015506 | 57 | 116 | 7.0 | 9.0 | 0.00 | 0.00 | 0.00 | 86 | 1018.1 |
| 20260503015006 | 57 | 115 | 6.0 | 8.0 | 0.00 | 0.00 | 0.00 | 86 | 1018.1 |
| 20260503014505 | 57 | 121 | 5.0 | 8.0 | 0.00 | 0.00 | 0.00 | 86 | 1018.2 |
| 20260503014004 | 57 | 114 | 6.0 | 8.0 | 0.00 | 0.00 | 0.00 | 86 | 1018.3 |
| 20260503013503 | 57 | 117 | 6.0 | 8.0 | 0.00 | 0.00 | 0.00 | 86 | 1018.3 |
| 20260503013002 | 57 | 111 | 5.0 | 7.0 | 0.00 | 0.00 | 0.00 | 86 | 1018.5 |
| 20260503012503 | 57 | 99 | 5.0 | 8.0 | 0.00 | 0.00 | 0.00 | 85 | 1018.6 |
| 20260503012001 | 57 | 116 | 5.0 | 8.0 | 0.00 | 0.00 | 0.00 | 85 | 1018.5 |
| 20260503011600 | 58 | 123 | 5.0 | 8.0 | 0.00 | 0.00 | 0.00 | 85 | 1018.5 |
| 20260503011059 | 58 | 96 | 5.0 | 8.0 | 0.00 | 0.00 | 0.00 | 85 | 1018.6 |
| 20260503010559 | 58 | 115 | 4.0 | 8.0 | 0.00 | 0.00 | 0.00 | 85 | 1018.6 |
| 20260503010058 | 58 | 112 | 5.0 | 8.0 | 0.00 | 0.00 | 0.00 | 85 | 1018.7 |
| 20260503005559 | 58 | 130 | 6.0 | 8.0 | 0.00 | 0.00 | 0.00 | 85 | 1018.8 |
| 20260503005056 | 58 | 119 | 4.0 | 9.0 | 0.00 | 0.00 | 0.00 | 86 | 1018.9 |
| 20260503004556 | 58 | 119 | 6.0 | 9.0 | 0.00 | 0.00 | 0.00 | 86 | 1019.0 |
| 20260503004055 | 58 | 109 | 6.0 | 8.0 | 0.00 | 0.00 | 0.00 | 86 | 1019.1 |
| 20260503003554 | 58 | 108 | 5.0 | 8.0 | 0.00 | 0.00 | 0.00 | 85 | 1019.2 |
| 20260503003103 | 58 | 115 | 5.0 | 8.0 | 0.00 | 0.00 | 0.00 | 85 | 1019.2 |
| 20260503002553 | 58 | 118 | 5.0 | 7.0 | 0.00 | 0.00 | 0.00 | 85 | 1019.2 |
| 20260503002052 | 58 | 113 | 4.0 | 7.0 | 0.00 | 0.00 | 0.00 | 85 | 1019.2 |
| 20260503001652 | 58 | 106 | 4.0 | 7.0 | 0.00 | 0.00 | 0.00 | 85 | 1019.2 |
| 20260503001052 | 58 | 108 | 3.0 | 6.0 | 0.00 | 0.00 | 0.00 | 85 | 1019.1 |
| 20260503000550 | 58 | 107 | 4.0 | 6.0 | 0.00 | 0.00 | 0.00 | 85 | 1019.1 |
| 20260503000051 | 59 | 101 | 4.0 | 8.0 | 0.00 | 0.00 | 0.00 | 85 | 1019.1 |
| 20260502235550 | 59 | 123 | 5.0 | 8.0 | 0.00 | 0.00 | 0.00 | 85 | 1019.1 |
| 20260502235049 | 59 | 106 | 4.0 | 7.0 | 0.00 | 0.00 | 0.00 | 85 | 1019.2 |
| 20260502234551 | 59 | 91 | 4.0 | 8.0 | 0.00 | 0.00 | 0.00 | 85 | 1019.2 |
| 20260502234049 | 59 | 99 | 4.0 | 9.0 | 0.00 | 0.00 | 0.00 | 85 | 1019.2 |
| 20260502233547 | 59 | 112 | 7.0 | 10.0 | 0.00 | 0.00 | 0.00 | 85 | 1019.1 |
| 20260502233047 | 59 | 115 | 7.0 | 9.0 | 0.00 | 0.00 | 0.00 | 85 | 1019.3 |
| 20260502232545 | 59 | 130 | 5.0 | 8.0 | 0.00 | 0.00 | 0.00 | 85 | 1019.3 |
| 20260502232044 | 59 | 121 | 4.0 | 7.0 | 0.00 | 0.00 | 0.00 | 85 | 1019.3 |
| 20260502231545 | 59 | 104 | 3.0 | 9.0 | 0.00 | 0.00 | 0.00 | 85 | 1019.4 |
| 20260502231044 | 59 | 126 | 6.0 | 9.0 | 0.00 | 0.00 | 0.00 | 85 | 1019.2 |
| 20260502230543 | 60 | 123 | 4.0 | 7.0 | 0.00 | 0.00 | 0.00 | 85 | 1019.3 |
| 20260502230041 | 60 | 116 | 3.0 | 8.0 | 0.00 | 0.00 | 0.00 | 85 | 1019.4 |
| 20260502225539 | 60 | 120 | 5.0 | 8.0 | 0.00 | 0.00 | 0.00 | 85 | 1019.2 |
| 20260502225039 | 60 | 111 | 4.0 | 7.0 | 0.00 | 0.00 | 0.00 | 85 | 1019.2 |
| 20260502224539 | 60 | 124 | 4.0 | 8.0 | 0.00 | 0.00 | 0.00 | 85 | 1019.3 |
| 20260502224039 | 60 | 117 | 6.0 | 8.0 | 0.00 | 0.00 | 0.00 | 85 | 1019.3 |
| 20260502223539 | 60 | 109 | 5.0 | 9.0 | 0.00 | 0.00 | 0.00 | 85 | 1019.4 |
| 20260502223039 | 60 | 90 | 6.0 | 9.0 | 0.00 | 0.00 | 0.00 | 86 | 1019.4 |
| 20260502222539 | 60 | 97 | 2.0 | 6.0 | 0.00 | 0.00 | 0.00 | 87 | 1019.5 |
| 20260502222038 | 61 | 281 | 0.0 | 3.0 | 0.00 | 0.00 | 0.00 | 88 | 1019.5 |
| 20260502221543 | 61 | 281 | 0.0 | 0.0 | 0.00 | 0.00 | 0.00 | 88 | 1019.5 |
| 20260502221038 | 61 | 281 | 0.0 | 2.0 | 0.00 | 0.00 | 0.00 | 88 | 1019.4 |
| 20260502220538 | 60 | 281 | 0.0 | 2.0 | 0.00 | 0.00 | 0.00 | 88 | 1019.4 |
| 20260502220038 | 60 | 281 | 0.0 | 2.0 | 0.00 | 0.00 | 0.00 | 88 | 1019.4 |
| 20260502215538 | 61 | 281 | 0.0 | 0.0 | 0.00 | 0.00 | 0.00 | 89 | 1019.2 |
| 20260502215038 | 61 | 281 | 0.0 | 0.0 | 0.00 | 0.00 | 0.00 | 89 | 1019.2 |
| 20260502214547 | 61 | 281 | 0.0 | 0.0 | 0.00 | 0.00 | 0.00 | 89 | 1019.2 |
| 20260502214037 | 61 | 281 | 0.0 | 1.0 | 0.00 | 0.00 | 0.00 | 88 | 1019.2 |
| 20260502213539 | 61 | 281 | 0.0 | 2.0 | 0.00 | 0.00 | 0.00 | 88 | 1019.3 |
| 20260502213040 | 61 | 281 | 1.0 | 2.0 | 0.00 | 0.00 | 0.00 | 88 | 1019.2 |
| 20260502212537 | 60 | 281 | 0.0 | 0.0 | 0.00 | 0.00 | 0.00 | 88 | 1019.2 |
| 20260502212037 | 60 | 281 | 0.0 | 0.0 | 0.00 | 0.00 | 0.00 | 88 | 1019.3 |
| 20260502211537 | 60 | 281 | 0.0 | 0.0 | 0.00 | 0.00 | 0.00 | 88 | 1019.2 |
| 20260502211037 | 60 | 281 | 0.0 | 1.0 | 0.00 | 0.00 | 0.00 | 88 | 1019.1 |
| 20260502210536 | 60 | 281 | 0.0 | 2.0 | 0.00 | 0.00 | 0.00 | 89 | 1019.1 |
| 20260502210035 | 60 | 281 | 1.0 | 2.0 | 0.00 | 0.00 | 0.00 | 89 | 1019.0 |
| 20260502205535 | 60 | 281 | 0.0 | 2.0 | 0.00 | 0.00 | 0.00 | 89 | 1018.9 |
| 20260502205036 | 60 | 281 | 0.0 | 0.0 | 0.00 | 0.00 | 0.00 | 89 | 1018.9 |
| 20260502204536 | 60 | 281 | 0.0 | 0.0 | 0.00 | 0.00 | 0.00 | 89 | 1018.8 |
| 20260502204035 | 60 | 281 | 0.0 | 0.0 | 0.00 | 0.00 | 0.00 | 89 | 1018.8 |
| 20260502203535 | 60 | 281 | 0.0 | 0.0 | 0.00 | 0.00 | 0.00 | 89 | 1018.8 |
| 20260502203036 | 60 | 281 | 0.0 | 2.0 | 0.00 | 0.00 | 0.00 | 89 | 1018.8 |
| 20260502202534 | 60 | 281 | 0.0 | 4.0 | 0.00 | 0.00 | 0.00 | 89 | 1018.8 |
| 20260502202033 | 60 | 281 | 1.0 | 4.0 | 0.00 | 0.00 | 0.00 | 89 | 1018.9 |
| 20260502201533 | 61 | 281 | 1.0 | 3.0 | 0.00 | 0.00 | 0.00 | 89 | 1018.9 |
| 20260502201034 | 61 | 281 | 0.0 | 3.0 | 0.00 | 0.00 | 0.00 | 88 | 1018.8 |
| 20260502200533 | 61 | 281 | 0.0 | 3.0 | 0.00 | 0.00 | 0.00 | 87 | 1018.7 |
| 20260502200033 | 61 | 281 | 1.0 | 3.0 | 0.00 | 0.00 | 0.00 | 87 | 1018.6 |
| 20260502195534 | 61 | 281 | 0.0 | 2.0 | 0.00 | 0.00 | 0.00 | 87 | 1018.6 |
| 20260502195033 | 61 | 281 | 0.0 | 4.0 | 0.00 | 0.00 | 0.00 | 87 | 1018.5 |
| 20260502194536 | 61 | 281 | 2.0 | 4.0 | 0.00 | 0.00 | 0.00 | 87 | 1018.5 |
| 20260502194033 | 61 | 281 | 0.0 | 3.0 | 0.00 | 0.00 | 0.00 | 87 | 1018.5 |
| 20260502193532 | 61 | 281 | 0.0 | 3.0 | 0.00 | 0.00 | 0.00 | 87 | 1018.5 |
| 20260502193035 | 61 | 281 | 1.0 | 3.0 | 0.00 | 0.00 | 0.00 | 87 | 1018.4 |
| 20260502192533 | 61 | 281 | 2.0 | 4.0 | 0.00 | 0.00 | 0.00 | 86 | 1018.4 |
| 20260502192033 | 61 | 281 | 1.0 | 3.0 | 0.00 | 0.00 | 0.00 | 86 | 1018.4 |
| 20260502191532 | 61 | 281 | 0.0 | 4.0 | 0.00 | 0.00 | 0.00 | 86 | 1018.3 |
| 20260502191030 | 61 | 281 | 2.0 | 5.0 | 0.00 | 0.00 | 0.00 | 85 | 1018.3 |
| 20260502190530 | 62 | 281 | 2.0 | 5.0 | 0.00 | 0.00 | 0.00 | 85 | 1018.3 |
| 20260502190030 | 62 | 291 | 2.0 | 5.0 | 0.00 | 0.00 | 0.00 | 85 | 1018.3 |
| 20260502185532 | 62 | 323 | 1.0 | 3.0 | 0.00 | 0.00 | 0.00 | 85 | 1018.4 |
| 20260502185029 | 62 | 292 | 2.0 | 5.0 | 0.00 | 0.00 | 0.00 | 85 | 1018.3 |
| 20260502184550 | 62 | 284 | 1.0 | 5.0 | 0.00 | 0.00 | 0.00 | 85 | 1018.4 |
| 20260502184029 | 61 | 288 | 2.0 | 7.0 | 0.00 | 0.00 | 0.00 | 84 | 1018.5 |
| 20260502183529 | 61 | 284 | 5.0 | 7.0 | 0.00 | 0.00 | 0.00 | 84 | 1018.4 |
| 20260502183029 | 62 | 253 | 2.0 | 6.0 | 0.00 | 0.00 | 0.00 | 85 | 1018.4 |
| 20260502182528 | 62 | 270 | 2.0 | 6.0 | 0.00 | 0.00 | 0.00 | 85 | 1018.5 |
| 20260502182028 | 61 | 276 | 1.0 | 5.0 | 0.00 | 0.00 | 0.00 | 83 | 1018.5 |
| 20260502181531 | 62 | 276 | 2.0 | 5.0 | 0.00 | 0.00 | 0.00 | 84 | 1018.5 |
| 20260502181028 | 61 | 309 | 1.0 | 7.0 | 0.00 | 0.00 | 0.00 | 84 | 1018.6 |
| 20260502180529 | 62 | 264 | 4.0 | 8.0 | 0.00 | 0.00 | 0.00 | 84 | 1018.7 |
| 20260502164025 | 64 | 304 | 7.0 | 12.0 | 0.00 | 0.00 | 0.00 | 77 | 1018.5 |
| 20260502163524 | 64 | 273 | 6.0 | 11.0 | 0.00 | 0.00 | 0.00 | 78 | 1018.5 |
| 20260502163032 | 64 | 259 | 8.0 | 12.0 | 0.00 | 0.00 | 0.00 | 77 | 1018.5 |
| 20260502162524 | 64 | 322 | 5.0 | 12.0 | 0.00 | 0.00 | 0.00 | 79 | 1018.5 |
| 20260502162028 | 64 | 300 | 5.0 | 11.0 | 0.00 | 0.00 | 0.00 | 77 | 1018.7 |
| 20260502161524 | 64 | 237 | 7.0 | 10.0 | 0.00 | 0.00 | 0.00 | 79 | 1018.5 |
| 20260502161023 | 65 | 309 | 4.0 | 10.0 | 0.00 | 0.00 | 0.00 | 78 | 1018.5 |
| 20260502160526 | 65 | 271 | 1.0 | 8.0 | 0.00 | 0.00 | 0.00 | 78 | 1018.5 |
| 20260502152117 | 63 | 295 | 2.0 | 4.0 | 0.00 | 0.00 | 0.00 | 82 | 1019.1 |
| 20260502151517 | 62 | 327 | 2.0 | 4.0 | 0.00 | 0.00 | 0.00 | 84 | 1019.2 |
| 20260502151017 | 62 | 315 | 2.0 | 9.0 | 0.00 | 0.00 | 0.00 | 85 | 1019.3 |
| 20260502150517 | 62 | 250 | 3.0 | 9.0 | 0.00 | 0.00 | 0.00 | 86 | 1019.5 |
| 20260502130511 | 62 | 215 | 3.0 | 9.0 | 0.00 | 0.00 | 0.00 | 85 | 1020.2 |
| 20260502123512 | 62 | 296 | 3.0 | 11.0 | 0.00 | 0.00 | 0.00 | 83 | 1020.2 |
| 20260502123009 | 63 | 240 | 7.0 | 11.0 | 0.00 | 0.00 | 0.00 | 83 | 1020.0 |
| 20260502122509 | 63 | 248 | 4.0 | 11.0 | 0.00 | 0.00 | 0.00 | 82 | 1020.0 |
| 20260502122009 | 63 | 262 | 3.0 | 8.0 | 0.00 | 0.00 | 0.00 | 81 | 1019.9 |
| 20260502121511 | 63 | 292 | 4.0 | 8.0 | 0.00 | 0.00 | 0.00 | 81 | 1019.8 |
| 20260502121008 | 63 | 246 | 4.0 | 7.0 | 0.00 | 0.00 | 0.00 | 82 | 1019.7 |
| 20260502120508 | 62 | 284 | 1.0 | 7.0 | 0.00 | 0.00 | 0.00 | 82 | 1019.8 |
| 20260502115507 | 62 | 255 | 4.0 | 9.0 | 0.00 | 0.00 | 0.00 | 82 | 1019.8 |
| 20260502115007 | 63 | 261 | 4.0 | 8.0 | 0.00 | 0.00 | 0.00 | 82 | 1019.9 |
| 20260502114512 | 63 | 222 | 5.0 | 9.0 | 0.00 | 0.00 | 0.00 | 82 | 1020.0 |
| 20260502114006 | 63 | 250 | 6.0 | 10.0 | 0.00 | 0.00 | 0.00 | 81 | 1020.0 |
| 20260502113507 | 63 | 268 | 6.0 | 10.0 | 0.00 | 0.00 | 0.00 | 81 | 1019.9 |
| 20260502113007 | 63 | 271 | 6.0 | 10.0 | 0.00 | 0.00 | 0.00 | 81 | 1019.9 |
| 20260502112506 | 64 | 291 | 5.0 | 11.0 | 0.00 | 0.00 | 0.00 | 82 | 1020.0 |
| 20260502112009 | 64 | 252 | 5.0 | 11.0 | 0.00 | 0.00 | 0.00 | 82 | 1019.9 |
| 20260502111505 | 63 | 269 | 6.0 | 11.0 | 0.00 | 0.00 | 0.00 | 83 | 1020.0 |
| 20260502111005 | 63 | 267 | 7.0 | 10.0 | 0.00 | 0.00 | 0.00 | 83 | 1019.9 |
| 20260502110505 | 63 | 274 | 5.0 | 10.0 | 0.00 | 0.00 | 0.00 | 84 | 1019.8 |
| 20260502110003 | 63 | 252 | 3.0 | 7.0 | 0.00 | 0.00 | 0.00 | 84 | 1019.9 |
| 20260502105503 | 63 | 266 | 4.0 | 8.0 | 0.00 | 0.00 | 0.00 | 84 | 1019.9 |
| 20260502105003 | 63 | 269 | 3.0 | 8.0 | 0.00 | 0.00 | 0.00 | 84 | 1020.0 |
| 20260502104502 | 63 | 263 | 3.0 | 10.0 | 0.00 | 0.00 | 0.00 | 83 | 1020.0 |
| 20260502104002 | 63 | 245 | 7.0 | 10.0 | 0.00 | 0.00 | 0.00 | 83 | 1020.0 |
| 20260502103502 | 63 | 247 | 5.0 | 9.0 | 0.00 | 0.00 | 0.00 | 82 | 1020.0 |
| 20260502103003 | 63 | 301 | 5.0 | 11.0 | 0.00 | 0.00 | 0.00 | 83 | 1020.0 |
| 20260502102601 | 63 | 298 | 6.0 | 11.0 | 0.00 | 0.00 | 0.00 | 84 | 1019.9 |
| 20260502102100 | 63 | 241 | 5.0 | 10.0 | 0.00 | 0.00 | 0.00 | 85 | 1019.8 |
| 20260502101637 | 62 | 281 | 3.0 | 8.0 | 0.00 | 0.00 | 0.00 | 86 | 1019.7 |
| 20260502101103 | 62 | 270 | 4.0 | 7.0 | 0.00 | 0.00 | 0.00 | 86 | 1019.7 |
| 20260502100558 | 62 | 265 | 3.0 | 7.0 | 0.00 | 0.00 | 0.00 | 86 | 1019.8 |
| 20260502100119 | 62 | 252 | 2.0 | 8.0 | 0.00 | 0.00 | 0.00 | 85 | 1019.9 |
| 20260502091049 | 62 | 276 | 0.0 | 4.0 | 0.00 | 0.00 | 0.00 | 83 | 1019.5 |
| 20260502090547 | 62 | 276 | 1.0 | 7.0 | 0.00 | 0.00 | 0.00 | 83 | 1019.6 |
| 20260502071520 | 56 | 105 | 9.0 | 12.0 | 0.00 | 0.00 | 0.00 | 84 | 1018.8 |
| 20260502071020 | 56 | 119 | 9.0 | 13.0 | 0.00 | 0.00 | 0.00 | 84 | 1018.8 |
| 20260502070519 | 56 | 101 | 10.0 | 14.0 | 0.00 | 0.00 | 0.00 | 85 | 1019.0 |
| 20260502070025 | 56 | 105 | 10.0 | 14.0 | 0.00 | 0.00 | 0.00 | 85 | 1018.8 |
| 20260502065517 | 56 | 117 | 8.0 | 13.0 | 0.00 | 0.00 | 0.00 | 85 | 1018.9 |
| 20260502065016 | 56 | 113 | 7.0 | 10.0 | 0.00 | 0.00 | 0.00 | 85 | 1019.0 |
| 20260502064515 | 56 | 99 | 6.0 | 8.0 | 0.00 | 0.00 | 0.00 | 85 | 1019.1 |
| 20260502064015 | 56 | 127 | 6.0 | 8.0 | 0.00 | 0.00 | 0.00 | 84 | 1019.1 |
| 20260502063515 | 56 | 113 | 6.0 | 8.0 | 0.00 | 0.00 | 0.00 | 84 | 1019.1 |
| 20260502063015 | 56 | 117 | 6.0 | 9.0 | 0.00 | 0.00 | 0.00 | 84 | 1019.0 |
| 20260502062514 | 56 | 105 | 6.0 | 10.0 | 0.00 | 0.00 | 0.00 | 84 | 1018.9 |
| 20260502062020 | 56 | 110 | 7.0 | 10.0 | 0.00 | 0.00 | 0.00 | 85 | 1018.8 |
| 20260502061514 | 56 | 118 | 7.0 | 10.0 | 0.00 | 0.00 | 0.00 | 85 | 1018.8 |
| 20260502061013 | 56 | 101 | 8.0 | 10.0 | 0.00 | 0.00 | 0.00 | 85 | 1018.7 |
| 20260502060513 | 56 | 114 | 7.0 | 10.0 | 0.00 | 0.00 | 0.00 | 85 | 1018.7 |
| 20260502060013 | 56 | 123 | 8.0 | 11.0 | 0.00 | 0.00 | 0.00 | 85 | 1018.7 |
| 20260502055515 | 56 | 119 | 9.0 | 11.0 | 0.00 | 0.00 | 0.00 | 85 | 1018.6 |
| 20260502055012 | 56 | 111 | 8.0 | 10.0 | 0.00 | 0.00 | 0.00 | 85 | 1018.7 |
| 20260502054511 | 56 | 107 | 7.0 | 9.0 | 0.00 | 0.00 | 0.00 | 84 | 1018.8 |
| 20260502054009 | 56 | 105 | 6.0 | 9.0 | 0.00 | 0.00 | 0.00 | 84 | 1018.7 |
| 20260502053509 | 57 | 103 | 6.0 | 9.0 | 0.00 | 0.00 | 0.00 | 84 | 1018.6 |
| 20260502053009 | 57 | 104 | 6.0 | 9.0 | 0.00 | 0.00 | 0.00 | 84 | 1018.7 |
| 20260502052609 | 57 | 119 | 7.0 | 9.0 | 0.00 | 0.00 | 0.00 | 84 | 1018.6 |
| 20260502052009 | 57 | 124 | 7.0 | 9.0 | 0.00 | 0.00 | 0.00 | 84 | 1018.6 |
| 20260502051521 | 57 | 124 | 6.0 | 9.0 | 0.00 | 0.00 | 0.00 | 83 | 1018.5 |
| 20260502051008 | 57 | 121 | 7.0 | 9.0 | 0.00 | 0.00 | 0.00 | 83 | 1018.5 |
| 20260502050508 | 57 | 98 | 6.0 | 9.0 | 0.00 | 0.00 | 0.00 | 84 | 1018.6 |
| 20260502050009 | 57 | 117 | 7.0 | 9.0 | 0.00 | 0.00 | 0.00 | 83 | 1018.6 |
| 20260502045508 | 57 | 121 | 7.0 | 10.0 | 0.00 | 0.00 | 0.00 | 84 | 1018.7 |
| 20260502045008 | 57 | 121 | 7.0 | 10.0 | 0.00 | 0.00 | 0.00 | 84 | 1018.7 |
| 20260502044510 | 56 | 102 | 8.0 | 11.0 | 0.00 | 0.00 | 0.00 | 84 | 1018.6 |
| 20260502044007 | 56 | 134 | 8.0 | 11.0 | 0.00 | 0.00 | 0.00 | 84 | 1018.6 |
| 20260502043506 | 56 | 109 | 7.0 | 10.0 | 0.00 | 0.00 | 0.00 | 84 | 1018.7 |
| 20260502043013 | 56 | 105 | 8.0 | 11.0 | 0.00 | 0.00 | 0.00 | 84 | 1018.7 |
| 20260502042506 | 56 | 109 | 7.0 | 11.0 | 0.00 | 0.00 | 0.00 | 84 | 1018.8 |
| 20260502042006 | 56 | 123 | 8.0 | 10.0 | 0.00 | 0.00 | 0.00 | 84 | 1018.8 |
| 20260502041506 | 56 | 112 | 7.0 | 9.0 | 0.00 | 0.00 | 0.00 | 84 | 1018.8 |
| 20260502041005 | 56 | 111 | 6.0 | 9.0 | 0.00 | 0.00 | 0.00 | 83 | 1018.8 |
| 20260502040505 | 57 | 109 | 7.0 | 9.0 | 0.00 | 0.00 | 0.00 | 83 | 1018.7 |
| 20260502040004 | 57 | 96 | 6.0 | 9.0 | 0.00 | 0.00 | 0.00 | 82 | 1018.7 |
| 20260502035504 | 57 | 115 | 7.0 | 9.0 | 0.00 | 0.00 | 0.00 | 83 | 1018.7 |
| 20260502035006 | 57 | 105 | 6.0 | 9.0 | 0.00 | 0.00 | 0.00 | 83 | 1018.6 |
| 20260502034504 | 57 | 119 | 7.0 | 9.0 | 0.00 | 0.00 | 0.00 | 83 | 1018.7 |
| 20260502034003 | 57 | 124 | 6.0 | 10.0 | 0.00 | 0.00 | 0.00 | 83 | 1018.6 |
| 20260502033504 | 57 | 112 | 8.0 | 10.0 | 0.00 | 0.00 | 0.00 | 83 | 1018.6 |
| 20260502033004 | 57 | 108 | 8.0 | 11.0 | 0.00 | 0.00 | 0.00 | 83 | 1018.5 |
| 20260502032502 | 57 | 110 | 7.0 | 10.0 | 0.00 | 0.00 | 0.00 | 83 | 1018.5 |
| 20260502032002 | 57 | 120 | 6.0 | 11.0 | 0.00 | 0.00 | 0.00 | 83 | 1018.5 |
| 20260502031502 | 57 | 110 | 8.0 | 11.0 | 0.00 | 0.00 | 0.00 | 83 | 1018.5 |
| 20260502031002 | 57 | 115 | 9.0 | 11.0 | 0.00 | 0.00 | 0.00 | 83 | 1018.5 |
| 20260502030501 | 57 | 121 | 8.0 | 11.0 | 0.00 | 0.00 | 0.00 | 82 | 1018.5 |
| 20260502025558 | 57 | 126 | 7.0 | 10.0 | 0.00 | 0.00 | 0.00 | 82 | 1018.7 |
| 20260502025057 | 57 | 109 | 7.0 | 11.0 | 0.00 | 0.00 | 0.00 | 82 | 1018.8 |
| 20260502024557 | 57 | 88 | 7.0 | 11.0 | 0.00 | 0.00 | 0.00 | 82 | 1018.9 |
| 20260502024057 | 57 | 117 | 7.0 | 11.0 | 0.00 | 0.00 | 0.00 | 82 | 1018.9 |